This demonstration page uses our WeatherBlox Daily Observations layout. Learn more.

Left ArrowRight Arrow

39.51506, -84.39828

Hourly Observations for February 22, 2021

Temp ( °F °C ) Dew Point ( °F °C ) Humidity (%) Winds ( mph kmh ) Pressure ( in mb ) Visibility ( mi km ) Precip ( " mm )
12:15 am 00:15 Cloudy 42 5.3 28 -2.1 59 59 S 8 13 29.96 1015 10 16 0.00 0.00
12:35 am 00:35 Cloudy 42 5.3 29 -1.9 60 60 S 10 17 29.96 1015 10 16 0.00 0.00
12:55 am 00:55 Cloudy with Light Rain 41 5.1 29 -1.6 62 62 SSW 8 13 29.95 1014 10 16 0.00 0.00
1:15 am 01:15 Cloudy with Light Rain 41 5.2 29 -1.5 62 62 SSW 14 22 29.95 1014 10 16 0.00 0.00
1:35 am 01:35 Cloudy with Drizzle 43 6.2 31 -0.8 61 61 SSW 17 28 29.93 1013 10 16 0.00 0.00
1:55 am 01:55 Cloudy with Drizzle 42 5.6 31 -0.5 65 65 SSW 12 19 29.92 1013 10 16 0.00 0.00
2:15 am 02:15 Cloudy with Drizzle 44 6.7 32 0 63 63 SW 30 48 29.91 1013 10 16 0.00 0.00
2:35 am 02:35 Cloudy with Drizzle 44 6.5 33 0.8 67 67 SSW 22 35 29.90 1012 10 16 0.00 0.00
2:55 am 02:55 Cloudy with Light Rain 43 6.1 34 1.1 71 71 SSW 24 39 29.89 1012 10 16 0.00 0.00
3:15 am 03:15 Cloudy with Light Rain 43 6 36 2.1 76 76 SSW 23 37 29.88 1012 10 16 0.00 0.00
3:35 am 03:35 Cloudy 42 5.7 36 2.1 78 78 SSW 18 30 29.87 1012 10 16 0.00 0.00
3:55 am 03:55 Cloudy 41 5.2 36 2 80 80 SW 17 28 29.87 1012 10 16 0.00 0.00
4:15 am 04:15 Cloudy with Drizzle 41 4.9 37 2.7 86 86 SW 17 28 29.85 1011 10 16 0.00 0.00
4:35 am 04:35 Cloudy with Drizzle 40 4.6 38 3.1 90 90 SW 17 28 29.86 1011 7 11 0.00 0.00
4:55 am 04:55 Cloudy with Drizzle 40 4.3 39 3.7 96 96 SSW 17 28 29.85 1011 7 11 0.00 0.00
5:15 am 05:15 Cloudy 39 4.1 39 3.8 98 98 SSW 14 22 29.84 1011 10 16 0.00 0.00
5:35 am 05:35 Cloudy 40 4.3 39 4 98 98 SSW 20 31 29.85 1011 10 16 0.00 0.00
5:55 am 05:55 Cloudy 40 4.2 38 3.6 96 96 SW 16 26 29.84 1011 10 16 0.00 0.00
6:15 am 06:15 Cloudy with Mist and Fog 39 4 38 3.6 97 97 SW 16 26 29.84 1011 7 11 0.00 0.00
6:35 am 06:35 Cloudy 39 4 39 3.9 99 99 SW 14 22 29.84 1011 7 11 0.00 0.00
6:55 am 06:55 Cloudy with Drizzle 39 4 39 4 100 100 SSW 13 20 29.86 1011 5 8 0.00 0.00
7:15 am 07:15 Cloudy with Drizzle 37 3 N/A N/A SW 12 19 29.85 1011 5 8 0.00 0.00
7:35 am 07:35 Cloudy with Drizzle 39 4 N/A N/A WSW 12 19 29.84 1011 10 16 0.00 0.00
7:55 am 07:55 Cloudy with Drizzle 39 3.7 38 3.3 97 97 WSW 15 24 29.85 1011 7 11 0.00 0.00
8:15 am 08:15 Cloudy with Light Rain 39 3.7 37 2.5 92 92 WSW 14 22 29.86 1011 7 11 0.00 0.00
8:35 am 08:35 Cloudy 38 3.6 36 2.3 91 91 W 15 24 29.88 1012 10 16 0.00 0.00
8:55 am 08:55 Cloudy with Drizzle 36 2.3 34 1 91 91 W 17 28 29.91 1013 10 16 0.00 0.00
9:15 am 09:15 Cloudy 36 2.3 34 0.9 91 91 W 18 30 29.92 1013 10 16 0.00 0.00
9:35 am 09:35 Cloudy 36 2.3 33 0.8 90 90 WSW 16 26 29.93 1014 10 16 0.00 0.00
9:55 am 09:55 Cloudy 37 2.6 33 0.6 87 87 WSW 13 20 29.93 1013 10 16 0.00 0.00
10:15 am 10:15 Cloudy 37 2.5 32 0 84 84 WSW 16 26 29.94 1014 10 16 0.00 0.00
10:35 am 10:35 Cloudy 37 2.5 31 -0.5 81 81 WSW 18 30 29.94 1014 10 16 0.00 0.00
10:55 am 10:55 Cloudy 37 2.5 31 -0.7 80 80 WSW 17 28 29.95 1014 10 16 0.00 0.00
11:15 am 11:15 Cloudy 37 2.8 30 -1.2 75 75 WSW 16 26 29.95 1014 10 16 0.00 0.00
11:35 am 11:35 Cloudy 37 2.8 30 -1 76 76 WSW 16 26 29.95 1014 10 16 0.00 0.00
11:55 am 11:55 Cloudy 37 2.9 30 -1.2 75 75 WSW 20 31 29.96 1014 10 16 0.00 0.00
12:15 pm 12:15 Cloudy 37 2.9 29 -1.4 74 74 W 17 28 29.96 1014 10 16 0.00 0.00
12:35 pm 12:35 Cloudy 37 3 29 -1.5 73 73 W 16 26 29.97 1015 10 16 0.00 0.00
12:55 pm 12:55 Cloudy 37 3 29 -1.6 72 72 W 15 24 29.97 1015 10 16 0.00 0.00
1:15 pm 13:15 Cloudy 37 2.9 29 -1.5 73 73 WSW 17 28 29.96 1014 10 16 0.00 0.00
1:35 pm 13:35 Cloudy 38 3.1 29 -1.4 73 73 WSW 22 35 29.96 1014 10 16 0.00 0.00
1:55 pm 13:55 Cloudy 38 3.2 29 -1.5 72 72 WSW 15 24 29.96 1014 10 16 0.00 0.00
2:15 pm 14:15 Cloudy 38 3.3 29 -1.6 71 71 W 22 35 29.96 1014 10 16 0.00 0.00
2:35 pm 14:35 Cloudy 38 3.1 29 -1.8 71 71 W 13 20 29.97 1015 10 16 0.00 0.00
2:55 pm 14:55 Cloudy 38 3.3 29 -1.8 70 70 W 17 28 29.97 1015 10 16 0.00 0.00
3:15 pm 15:15 Cloudy 38 3.2 29 -1.5 72 72 WSW 17 28 29.97 1015 10 16 0.00 0.00
3:35 pm 15:35 Cloudy 38 3.3 29 -1.4 72 72 WSW 15 24 29.97 1015 10 16 0.00 0.00
3:55 pm 15:55 Cloudy 38 3.3 30 -1.2 73 73 SW 15 24 29.98 1015 10 16 0.00 0.00
4:15 pm 16:15 Cloudy 38 3.2 30 -1 74 74 WSW 20 31 29.99 1015 10 16 0.00 0.00
4:35 pm 16:35 Cloudy 38 3.2 30 -1.1 74 74 WSW 16 26 29.99 1015 10 16 0.00 0.00
4:55 pm 16:55 Cloudy 38 3.2 30 -1.1 74 74 WSW 13 20 29.99 1015 10 16 0.00 0.00
5:15 pm 17:15 Cloudy 38 3.1 30 -1.2 74 74 SW 17 28 29.99 1015 10 16 0.00 0.00
5:35 pm 17:35 Partly Cloudy 37 3 29 -1.4 73 73 WSW 17 28 29.99 1015 10 16 0.00 0.00
5:55 pm 17:55 Sunny 37 2.8 30 -1.3 75 75 SW 13 20 29.99 1015 10 16 0.00 0.00
6:15 pm 18:15 Sunny 37 2.6 29 -1.4 75 75 WSW 12 19 29.99 1016 10 16 0.00 0.00
6:35 pm 18:35 Clear 35 1.9 30 -1.2 80 80 SW 10 17 29.97 1015 10 16 0.00 0.00
6:55 pm 18:55 Clear 35 1.9 30 -1.2 80 80 SW 12 19 29.97 1015 10 16 0.00 0.00
7:15 pm 19:15 Clear 35 1.5 30 -1.1 83 83 SSW 10 17 29.97 1015 10 16 0.00 0.00
7:35 pm 19:35 Clear 35 1.7 30 -1.1 82 82 SSW 8 13 29.98 1015 10 16 0.00 0.00
7:55 pm 19:55 Clear 35 1.7 30 -1.1 82 82 SSW 8 13 29.98 1015 10 16 0.00 0.00
8:15 pm 20:15 Clear 35 1.4 30 -1.3 82 82 SSW 7 11 29.97 1015 10 16 0.00 0.00
8:35 pm 20:35 Clear 34 1.3 29 -1.4 82 82 SSW 9 15 29.96 1015 10 16 0.00 0.00
8:55 pm 20:55 Clear 35 1.4 29 -1.4 82 82 SSW 8 13 29.96 1015 10 16 0.00 0.00
9:15 pm 21:15 Clear 34 1 30 -1.3 85 85 SSW 8 13 29.96 1015 10 16 0.00 0.00
9:35 pm 21:35 Clear 33 0.8 29 -1.4 85 85 SSW 8 13 29.96 1015 10 16 0.00 0.00
9:55 pm 21:55 Clear 33 0.6 29 -1.6 85 85 S 5 7 29.95 1014 10 16 0.00 0.00
10:15 pm 22:15 Clear 32 0 29 -1.7 88 88 SSW 7 11 29.96 1014 10 16 0.00 0.00
10:35 pm 22:35 Clear 33 0.4 29 -1.6 87 87 SSW 8 13 29.95 1014 10 16 0.00 0.00
10:55 pm 22:55 Clear 33 0.6 29 -1.4 87 87 SSW 9 15 29.93 1014 10 16 0.00 0.00
11:15 pm 23:15 Clear 33 0.3 29 -1.5 88 88 SSW 8 13 29.92 1013 10 16 0.00 0.00
11:35 pm 23:35 Clear 33 0.6 29 -1.4 87 87 SSW 9 15 29.91 1013 7 11 0.00 0.00
11:55 pm 23:55 Clear 34 0.9 30 -1.2 86 86 SSW 10 17 29.90 1013 10 16 0.00 0.00

Powered by AerisWeather